DW3212 Weather Reports


time (UTC)temp
F
wind
direction
speed
knots
gust
knots
rain 1hr
in
rain 24hr
in
rain mn
in
humidity
%
barometer
mb
20260906024601 58 0.0 0.0 0.00 0.00 0.00 92 1014.3
20260906023103 58 0.0 0.0 0.00 0.00 0.00 92 1014.4
20260906021603 58 0.0 0.0 0.00 0.00 0.00 92 1014.4
20260906020100 57 0.0 0.0 0.00 0.00 0.00 93 1014.3
20260906014616 57 0.0 0.0 0.00 0.00 0.00 93 1014.1
20260906013107 57 0.0 0.0 0.00 0.00 0.00 92 1014.1
20260906011618 57 0.0 0.0 0.00 0.00 0.00 92 1014.3
20260906004619 57 0.0 0.0 0.00 0.00 0.00 91 1014.2
20260906003103 57 0.0 0.0 0.00 0.00 0.00 90 1014.1
20260906001603 58 0.0 0.0 0.00 0.00 0.00 90 1014.0
20260906000105 58 0.0 0.0 0.00 0.00 0.00 89 1014.1
20260905234606 59 0.0 0.0 0.00 0.00 0.00 89 1013.8
20260905233130 59 0.0 0.0 0.00 0.00 0.00 88 1013.7
20260905231559 60 0.0 0.0 0.00 0.00 0.00 86 1013.5
20260905230104 61 0.0 0.0 0.00 0.00 0.00 86 1013.5
20260905224622 61 0.0 0.0 0.00 0.00 0.00 85 1013.4
20260905223106 62 0.0 0.0 0.00 0.00 0.00 84 1013.3
20260905221604 62 0.0 0.0 0.00 0.00 0.00 84 1013.3
20260905220106 63 0.0 0.0 0.00 0.00 0.00 82 1013.2
20260905214605 63 0.0 0.0 0.00 0.00 0.00 82 1013.2
20260905213105 63 0.0 0.0 0.00 0.00 0.00 82 1013.1
20260905211603 63 0.0 0.0 0.00 0.00 0.00 82 1013.0
20260905204559 63 0.0 0.0 0.00 0.00 0.00 81 1012.9
20260905203107 63 0.0 0.0 0.00 0.00 0.00 84 1012.8
20260905201611 65 0.0 0.0 0.00 0.00 0.00 78 1012.7
20260905200110 66 0.0 0.0 0.00 0.00 0.00 79 1012.4
20260905194605 64 0.0 0.0 0.00 0.00 0.00 84 1012.5
20260905193116 63 0.0 0.0 0.00 0.00 0.00 84 1012.6
20260905191610 64 0.0 0.0 0.00 0.00 0.00 83 1012.6
20260905190134 66 0.0 0.0 0.00 0.00 0.00 75 1012.5
20260905184622 66 0.0 0.0 0.00 0.00 0.00 72 1012.5
20260905183103 65 0.0 0.0 0.00 0.00 0.00 76 1012.4
20260905181603 65 0.0 0.0 0.00 0.00 0.00 77 1012.5
20260905174605 67 0.0 0.0 0.00 0.00 0.00 71 1012.4
20260905173104 66 0.0 0.0 0.00 0.00 0.00 75 1012.5
20260905171602 65 0.0 0.0 0.00 0.00 0.00 74 1012.3
20260905170118 65 0.0 0.0 0.00 0.00 0.00 77 1012.5
20260905164604 64 0.0 0.0 0.00 0.00 0.00 77 1012.4
20260905163106 65 0.0 0.0 0.00 0.00 0.00 75 1012.4
20260905161601 65 0.0 0.0 0.00 0.00 0.00 72 1012.4
20260905160059 66 0.0 0.0 0.00 0.00 0.00 72 1012.4
20260905154609 67 0.0 0.0 0.00 0.00 0.00 70 1012.5
20260905153104 66 0.0 0.0 0.00 0.00 0.00 74 1012.6
20260905151604 65 0.0 0.0 0.00 0.00 0.00 76 1012.5
20260905150057 65 0.0 0.0 0.00 0.00 0.00 77 1012.5
20260905144601 62 0.0 0.0 0.00 0.00 0.00 81 1012.6
20260905143104 64 0.0 0.0 0.00 0.00 0.00 76 1012.6
20260905141628 66 0.0 0.0 0.00 0.00 0.00 77 1012.5
20260905140100 64 0.0 0.0 0.00 0.00 0.00 78 1012.6
20260905134602 62 0.0 0.0 0.00 0.00 0.00 84 1012.5
20260905133101 61 0.0 0.0 0.00 0.00 0.00 83 1012.7
20260905131631 61 0.0 0.0 0.00 0.00 0.00 85 1012.6
20260905130116 61 0.0 0.0 0.00 0.00 0.00 82 1012.6
20260905124603 62 0.0 0.0 0.00 0.00 0.00 81 1012.4
20260905123110 60 0.0 0.0 0.00 0.00 0.00 85 1012.3
20260905121603 61 0.0 0.0 0.00 0.00 0.00 84 1012.2
20260905114557 61 0.0 0.0 0.00 0.00 0.00 82 1011.9
20260905113117 60 0.0 0.0 0.00 0.00 0.00 85 1011.6
20260905111602 58 0.0 0.0 0.00 0.00 0.00 88 1011.6
20260905110101 57 0.0 0.0 0.00 0.00 0.00 91 1011.7
20260905104602 55 0.0 0.0 0.00 0.00 0.00 94 1011.6
20260905103102 54 0.0 0.0 0.00 0.00 0.00 93 1011.5
20260905101632 55 0.0 0.0 0.00 0.00 0.00 93 1011.4
20260905100108 55 0.0 0.0 0.00 0.00 0.00 93 1011.4
20260905094600 55 0.0 0.0 0.00 0.00 0.00 93 1011.3
20260905093104 55 0.0 0.0 0.00 0.00 0.00 93 1011.3
20260905091624 55 0.0 0.0 0.00 0.00 0.00 91 1011.3
20260905090104 56 0.0 0.0 0.00 0.00 0.00 89 1011.2
20260905084617 56 0.0 0.0 0.00 0.00 0.00 90 1011.1
20260905083103 56 0.0 0.0 0.00 0.00 0.00 90 1011.1
20260905081600 57 0.0 0.0 0.00 0.00 0.00 90 1011.1
20260905080104 57 0.0 0.0 0.00 0.00 0.00 90 1011.3
20260905074601 57 0.0 0.0 0.00 0.00 0.00 89 1011.3
20260905073103 57 0.0 0.0 0.00 0.00 0.00 89 1011.5
20260905071603 58 0.0 0.0 0.00 0.00 0.00 88 1011.6
20260905070116 58 0.0 0.0 0.00 0.00 0.00 87 1011.6
20260905064600 58 0.0 0.0 0.00 0.00 0.00 86 1011.7
20260905063058 58 0.0 0.0 0.00 0.00 0.00 87 1011.6
20260905061617 58 0.0 0.0 0.00 0.00 0.00 86 1011.7
20260905060059 58 0.0 0.0 0.00 0.00 0.00 87 1011.8
20260905054600 58 0.0 0.0 0.00 0.00 0.00 86 1011.9
20260905053113 59 0.0 0.0 0.00 0.00 0.00 85 1011.9
20260905051558 59 0.0 0.0 0.00 0.00 0.00 85 1012.0
20260905050105 58 0.0 0.0 0.00 0.00 0.00 87 1012.2
20260905044603 59 0.0 0.0 0.00 0.00 0.00 86 1012.3
20260905043106 59 0.0 0.0 0.00 0.00 0.00 88 1012.3
20260905041558 59 0.0 0.0 0.00 0.00 0.00 88 1012.2
20260905040105 59 0.0 0.0 0.00 0.00 0.00 87 1012.2
20260905034601 60 0.0 0.0 0.00 0.00 0.00 86 1012.2
20260905033105 60 0.0 0.0 0.00 0.00 0.00 86 1012.4
20260905031602 61 0.0 0.0 0.00 0.00 0.00 86 1012.3
20260905030107 61 0.0 0.0 0.00 0.00 0.00 87 1012.2